Flag for U.S.A. Weather past 2 weeks in Lakeland, Florida, U.S.A.

Now
61 °F

Sunny.


Feels Like: 61 °F
Forecast: 43 / 65 °F
Wind: 17 mph from Northwest

Location: Lakeland Regional

Current Time: Jan 27, 2015 at 12:13:52 PM

Latest Report: Jan 27, 2015 at 11:50 AM


Visibility: 10 mi

Pressure: 30.04 "Hg

Humidity: 52%

Dew point: 43 °F

Location of LakelandLocation

Historic Weather in Lakeland — Graph

°F

Lakeland temperature yesterday

Maximum temperature yesterday: 64 °F (at 10:50 AM)
Minimum temperature yesterday: 48 °F (at 11:55 PM)
Average temperature yesterday: 56 °F

Past Weeks' High & Low Weather Summary

 TemperatureHumidityPressure
High79 °F (Jan 22, 1:52 PM)100% (Jan 12, 4:50 PM)30.24 "Hg (Jan 12, 4:50 PM)
Low39 °F (Jan 27, 7:50 AM)27% (Jan 19, 2:50 PM)29.82 "Hg (Jan 24, 4:35 AM)
Average58 °F84%30.08 "Hg
* Reported Jan 12 10:50 AM — Jan 27 10:50 AM, Lakeland, Weather by CustomWeather, © 2014

Note: Actual official high and low records may vary slightly from our data, if they occured in-between our weather recording intervals... More about our weather records

Advertising

Lakeland weather history for previous 24 hours

 ConditionsComfort  
Time TempWeatherWind HumidityBarometerVisibility
10:50 AM
Jan 27
57 °FSunny.10 mph55%30.07 "Hg10 mi
9:50 AM52 °FSunny.6 mph82%30.08 "Hg10 mi
8:50 AM46 °FSunny.3 mph76%30.07 "Hg10 mi
7:50 AM39 °FSunny.No wind100%30.06 "Hg10 mi
6:50 AM41 °FClear.No wind87%30.05 "Hg10 mi
5:50 AM43 °FClear.No wind81%30.02 "Hg10 mi
4:35 AM45 °FClear.5 mph76%30.01 "Hg10 mi
4:15 AM45 °FClear.6 mph81%30.01 "Hg10 mi
3:55 AM45 °FClear.7 mph87%30.00 "Hg10 mi
3:15 AM45 °FClear.3 mph87%30.00 "Hg10 mi
2:55 AM46 °FClear.5 mph82%30.00 "Hg10 mi
2:35 AM46 °FClear.6 mph87%30.00 "Hg10 mi
2:15 AM46 °FClear.3 mph87%30.00 "Hg10 mi
1:55 AM48 °FClear.3 mph82%29.99 "Hg10 mi
1:35 AM48 °FClear.3 mph82%29.99 "Hg10 mi
1:15 AM48 °FClear.6 mph87%29.98 "Hg10 mi
12:55 AM50 °FPassing clouds.6 mph82%29.98 "Hg10 mi
12:35 AM50 °FOvercast.3 mph82%29.98 "Hg10 mi
12:15 AM50 °FOvercast.3 mph82%29.98 "Hg10 mi
11:55 PM
Jan 26
48 °FPassing clouds.3 mph87%29.98 "Hg10 mi
11:15 PM50 °FClear.6 mph82%29.98 "Hg10 mi
10:55 PM50 °FClear.6 mph82%29.98 "Hg10 mi
10:15 PM50 °FPassing clouds.7 mph82%29.98 "Hg10 mi
9:55 PM50 °FPassing clouds.8 mph82%29.98 "Hg10 mi
9:35 PM50 °FPassing clouds.7 mph82%29.96 "Hg10 mi
9:15 PM50 °FPassing clouds.5 mph82%29.96 "Hg10 mi
8:50 PM52 °FClear.5 mph82%29.95 "Hg10 mi
7:50 PM54 °FClear.6 mph77%29.94 "Hg10 mi
6:50 PM55 °FPassing clouds.12 mph72%29.93 "Hg10 mi
5:50 PM59 °FScattered clouds.14 mph63%29.90 "Hg15 mi
4:50 PM63 °FScattered clouds.16 mph56%29.88 "Hg15 mi
3:50 PM63 °FScattered clouds.18 mph56%29.88 "Hg15 mi
2:50 PM64 °FScattered clouds.16 mph56%29.89 "Hg15 mi
1:50 PM64 °FScattered clouds.21 mph49%29.88 "Hg15 mi
12:50 PM64 °FScattered clouds.17 mph49%29.89 "Hg15 mi
Weather by CustomWeather, © 2014

See weather overviewHow to use our weather pages